Location: Gradaro
(45.0833°N, 10.8833°E)
Time: 14:20:20
(UTC+00:00)

Cosmos 158 Rocket - Pass Details

Date: 29 November 2020
Orbit: 698 x 793 km, 74.0° (Epoch: 23 January)

Event Time Altitude Azimuth Distance (km) Brightness Sun altitude
Exits shadow 04:10:48 61° 340° (NNW) 806 3.9 -24.4°
Maximum altitude 04:11:41 90° 48° (NE) 718 3.7 -24.3°
Drops below altitude 10° 04:16:40 10° 160° (SSE) 2,206 6.7 -23.4°
Sets 04:19:01 0° 161° (SSE) 3,137 7.5 -23.0°
